Weather reports worldwide

Advertisment
Lanzarote Airport (AWS), Spain (60040): temperature & dewpoint: 16.09.2018 14:00:00 - 22.09.2018 14:00:00 (WEST)Lanzarote Airport (AWS), Spain (60040): wind speed: 16.09.2018 14:00:00 - 22.09.2018 14:00:00 (WEST)Lanzarote Airport (AWS), Spain (60040): wind direction: 16.09.2018 14:00:00 - 22.09.2018 14:00:00 (WEST)Lanzarote Airport (AWS), Spain (60040): reduced air pressure: 16.09.2018 14:00:00 - 22.09.2018 14:00:00 (WEST)Lanzarote Airport (AWS), Spain (60040): visibility: 16.09.2018 14:00:00 - 22.09.2018 14:00:00 (WEST)
Date & Time tt [°C] td [°C] ff [km/h] ff [kn] dd ppp [hPa] vv [km]
22.09.2018 14:00:00 29,5 20,1 28 15 N 1017,2 -
22.09.2018 13:00:00 29,6 19,3 26 14 N 1017,5 25
22.09.2018 12:00:00 28,7 19,3 28 15 N 1017,7 -
22.09.2018 11:00:00 27,1 18,7 28 15 N 1017,7 -
22.09.2018 10:00:00 25,1 19,1 28 15 NNW 1017,4 25
22.09.2018 09:00:00 23,3 18,7 29 16 N 1016,5 -
22.09.2018 08:00:00 21,9 18,5 22 12 NNE 1016,3 -
22.09.2018 07:00:00 21,7 18,1 21 11 NNE 1016,0 25
22.09.2018 06:00:00 21,7 17,9 16 9 NNE 1015,8 -
22.09.2018 05:00:00 21,8 18,2 22 12 NNE 1016,2 -
22.09.2018 04:00:00 21,9 18,1 21 11 N 1016,2 -
22.09.2018 03:00:00 21,9 18,3 22 12 NNE 1016,7 -
22.09.2018 02:00:00 22,1 18,3 26 14 N 1017,2 -
22.09.2018 01:00:00 21,9 18,5 16 9 NNE 1018,0 18
22.09.2018 00:00:00 22,2 18,4 16 9 NNE 1018,3 -
21.09.2018 23:00:00 22,5 18,3 28 15 N 1018,1 -
21.09.2018 22:00:00 22,5 17,9 31 17 N 1017,4 25
21.09.2018 21:00:00 22,7 18,0 26 14 N 1017,0 -
21.09.2018 20:00:00 23,3 18,2 35 19 NNW 1016,0 -
21.09.2018 19:00:00 24,8 18,3 29 16 N 1016,1 25
21.09.2018 18:00:00 26,2 18,3 34 18 N 1016,2 -
21.09.2018 17:00:00 27,4 18,3 34 18 N 1016,4 -
21.09.2018 16:00:00 28,1 18,5 34 18 NNW 1016,5 25
21.09.2018 15:00:00 28,1 18,4 34 18 N 1016,9 -
21.09.2018 14:00:00 28,9 18,3 31 17 N 1017,4 -
21.09.2018 13:00:00 28,4 18,2 34 18 N 1018,1 30
21.09.2018 12:00:00 27,9 18,3 29 16 N 1018,4 -
21.09.2018 11:00:00 26,5 18,1 29 16 N 1018,4 -
21.09.2018 10:00:00 25,2 18,6 28 15 N 1018,2 -
21.09.2018 09:00:00 23,4 18,9 24 13 N 1018,1 -
21.09.2018 08:00:00 21,4 18,4 16 9 N 1017,9 -
21.09.2018 07:00:00 21,6 17,6 16 9 N 1017,7 25
21.09.2018 06:00:00 22,5 17,0 16 9 NNE 1017,2 -
21.09.2018 05:00:00 22,6 17,1 16 9 N 1017,3 -
21.09.2018 04:00:00 22,9 17,8 18 10 N 1017,8 -
21.09.2018 03:00:00 22,6 17,2 13 7 NNE 1018,1 -
21.09.2018 02:00:00 22,7 17,3 13 7 NNE 1018,8 -
21.09.2018 01:00:00 22,8 17,5 22 12 NNE 1019,4 30
21.09.2018 00:00:00 22,5 18,5 18 10 N 1019,7 -
20.09.2018 23:00:00 22,6 19,0 11 6 NE 1019,9 -
20.09.2018 22:00:00 22,7 18,5 24 13 N 1019,5 25
20.09.2018 21:00:00 23,3 18,6 22 12 N 1018,8 -
20.09.2018 20:00:00 23,9 18,3 28 15 N 1018,5 -
20.09.2018 19:00:00 25,3 18,2 31 17 N 1018,1 25
20.09.2018 18:00:00 26,8 17,8 29 16 N 1017,9 -
20.09.2018 17:00:00 28,0 18,1 31 17 N 1017,9 -
20.09.2018 16:00:00 29,1 18,6 29 16 N 1018,0 25
20.09.2018 15:00:00 29,8 17,9 22 12 N 1018,3 -
20.09.2018 14:00:00 29,4 18,0 22 12 NNW 1019,2 -
20.09.2018 13:00:00 28,7 18,7 18 10 N 1019,9 20
20.09.2018 12:00:00 27,7 19,0 21 11 N 1020,2 -
20.09.2018 11:00:00 26,2 19,4 22 12 N 1020,2 -
20.09.2018 10:00:00 25,4 19,1 21 11 N 1019,8 20
20.09.2018 09:00:00 23,0 19,5 13 7 NNW 1019,3 -
20.09.2018 08:00:00 21,7 18,9 4 2 NW 1019,0 -
20.09.2018 07:00:00 21,2 18,3 5 3 NNW 1018,4 25
20.09.2018 06:00:00 21,3 18,7 0 0 N 1018,2 -
20.09.2018 05:00:00 21,8 18,8 8 4 N 1018,0 -
20.09.2018 04:00:00 22,2 19,2 11 6 NNE 1018,2 -
20.09.2018 03:00:00 22,6 20,3 9 5 NNE 1018,8 -
20.09.2018 02:00:00 22,5 20,0 11 6 NE 1019,4 -
20.09.2018 01:00:00 22,8 20,1 9 5 NE 1020,1 25
20.09.2018 00:00:00 23,0 20,0 15 8 NNE 1020,3 -
19.09.2018 23:00:00 23,3 19,9 16 9 NNE 1020,3 -
19.09.2018 22:00:00 23,6 19,9 16 9 NNE 1020,2 20
19.09.2018 21:00:00 23,6 19,9 21 11 NE 1019,5 -
19.09.2018 20:00:00 24,9 19,3 21 11 NNE 1019,0 -
19.09.2018 19:00:00 26,7 19,8 24 13 N 1018,1 20
19.09.2018 18:00:00 27,2 20,0 18 10 NE 1017,9 -
19.09.2018 17:00:00 25,5 20,5 21 11 E 1018,1 -
19.09.2018 16:00:00 26,2 20,6 18 10 E 1018,4 20
19.09.2018 15:00:00 26,2 20,1 21 11 E 1018,8 -
19.09.2018 14:00:00 26,4 20,2 18 10 E 1019,1 -
19.09.2018 13:00:00 26,3 20,0 18 10 E 1019,4 25
19.09.2018 12:00:00 26,1 20,2 24 13 E 1019,5 -
19.09.2018 11:00:00 28,0 18,7 9 5 NE 1018,9 -
19.09.2018 10:00:00 26,1 18,6 15 8 N 1018,2 25
19.09.2018 09:00:00 23,2 19,5 21 11 NNW 1017,1 -
19.09.2018 08:00:00 21,6 18,0 5 3 NW 1016,7 -
19.09.2018 07:00:00 20,9 19,1 15 8 NNW 1016,6 25
19.09.2018 06:00:00 21,1 19,5 9 5 NNE 1016,8 -
19.09.2018 05:00:00 21,0 18,6 11 6 N 1016,6 -
19.09.2018 04:00:00 21,7 19,4 13 7 NNE 1016,7 -
19.09.2018 03:00:00 21,9 19,6 11 6 NNE 1017,3 -
19.09.2018 02:00:00 22,2 19,7 13 7 NNE 1017,6 -
19.09.2018 01:00:00 22,2 19,6 18 10 NNE 1018,0 20
19.09.2018 00:00:00 22,1 19,1 13 7 N 1018,0 -
18.09.2018 23:00:00 22,3 19,8 21 11 N 1017,6 -
18.09.2018 22:00:00 22,6 19,8 24 13 N 1016,4 20
18.09.2018 21:00:00 23,2 19,6 26 14 N 1015,5 -
18.09.2018 20:00:00 24,1 19,0 28 15 N 1015,0 -
18.09.2018 19:00:00 26,3 19,9 28 15 N 1015,0 25
18.09.2018 18:00:00 28,1 20,0 22 12 N 1015,1 -
18.09.2018 17:00:00 26,1 21,1 24 13 E 1015,2 -
18.09.2018 16:00:00 26,3 20,4 22 12 E 1015,3 20
18.09.2018 15:00:00 27,8 20,2 18 10 ENE 1015,8 -
18.09.2018 14:00:00 26,5 20,4 24 13 E 1016,1 -
18.09.2018 13:00:00 27,4 20,0 21 11 E 1016,5 25
18.09.2018 12:00:00 27,0 17,8 15 8 ENE 1016,9 -
18.09.2018 11:00:00 25,4 17,1 16 9 ENE 1017,2 -
18.09.2018 10:00:00 24,7 17,2 15 8 NE 1016,7 30
18.09.2018 09:00:00 23,7 17,0 16 9 NNE 1016,1 -
18.09.2018 08:00:00 23,1 17,1 13 7 NNE 1015,7 -
18.09.2018 07:00:00 23,1 17,1 11 6 NE 1015,4 30
18.09.2018 06:00:00 23,1 16,9 15 8 N 1015,3 -
18.09.2018 05:00:00 23,1 16,6 15 8 NNE 1015,2 -
18.09.2018 04:00:00 23,0 18,1 16 9 NNE 1015,5 -
18.09.2018 03:00:00 23,1 18,0 15 8 NE 1016,0 -
18.09.2018 02:00:00 23,1 17,3 16 9 NE 1016,4 -
18.09.2018 01:00:00 23,3 17,5 16 9 NNE 1016,6 20
18.09.2018 00:00:00 23,4 17,4 16 9 NNE 1016,6 -
17.09.2018 23:00:00 23,2 17,6 18 10 N 1016,5 -
17.09.2018 22:00:00 23,1 17,6 18 10 NNE 1016,3 30
17.09.2018 21:00:00 23,1 17,6 16 9 N 1015,8 -
17.09.2018 20:00:00 23,6 17,3 18 10 N 1015,3 -
17.09.2018 19:00:00 24,9 17,5 24 13 NNW 1015,2 25
17.09.2018 18:00:00 26,2 17,7 28 15 NNW 1015,3 -
17.09.2018 17:00:00 26,4 17,8 24 13 NNW 1015,6 -
17.09.2018 16:00:00 27,6 18,0 24 13 N 1015,6 25
17.09.2018 15:00:00 28,2 17,9 22 12 N 1016,0 -
17.09.2018 14:00:00 27,2 17,7 18 10 N 1016,7 -
17.09.2018 13:00:00 26,6 17,7 22 12 N 1017,1 25
17.09.2018 12:00:00 25,1 18,3 22 12 N 1017,7 -
17.09.2018 11:00:00 24,1 18,1 21 11 N 1017,8 -
17.09.2018 10:00:00 23,5 17,8 18 10 N 1017,6 20
17.09.2018 09:00:00 22,9 17,4 18 10 N 1017,0 -
17.09.2018 08:00:00 22,2 18,0 16 9 N 1016,9 -
17.09.2018 07:00:00 21,6 18,2 11 6 NNE 1016,6 20
17.09.2018 06:00:00 22,0 17,6 22 12 N 1016,2 -
17.09.2018 05:00:00 22,3 17,7 22 12 N 1016,5 -
17.09.2018 04:00:00 22,3 17,9 21 11 N 1016,7 -
17.09.2018 03:00:00 22,3 18,0 22 12 N 1017,4 -
17.09.2018 02:00:00 22,0 18,2 13 7 NNE 1017,7 -
17.09.2018 01:00:00 22,2 18,4 29 16 NNW 1017,2 25
17.09.2018 00:00:00 22,4 18,2 37 20 NNW 1017,4 -
16.09.2018 23:00:00 22,6 18,3 34 18 NNW 1017,6 -
16.09.2018 22:00:00 22,8 18,1 34 18 NNW 1017,6 25
16.09.2018 21:00:00 23,2 18,5 16 9 N 1017,6 -
16.09.2018 20:00:00 23,8 18,8 28 15 N 1017,4 -
16.09.2018 19:00:00 24,9 18,3 28 15 N 1017,1 25
16.09.2018 18:00:00 26,0 18,4 39 21 N 1016,7 -
16.09.2018 17:00:00 27,1 18,6 42 23 NNW 1016,5 -
16.09.2018 16:00:00 27,9 19,1 46 25 N 1016,6 25
16.09.2018 15:00:00 27,5 18,2 50 27 N 1016,5 -
16.09.2018 14:00:00 28,1 18,4 46 25 NNW 1017,0 -

tt = temperature
td = dewpoint
ff = wind speed
dd = wind direction
ppp = reduced air pressure
vv = visibility

Next stations